Weather History for Livingston, MT

Change the Weather History Date:

Thursday, January 17, 2013

  Actual Average Record
Temperature  
Mean Temperature 38 °F 27 °F  
Max Temperature 45 °F 37 °F 55 °F (1961)
Min Temperature 30 °F 17 °F -12 °F (1950)
Degree Days  
Heating Degree Days 28 38  
Month to date heating degree days 650  
Since 1 July heating degree days 3815  
Moisture  
Dew Point 14 °F    
Average Humidity 38    
Maximum Humidity 48    
Minimum Humidity 30    
Precipitation  
Precipitation 0.00 in 0.01 in 0.31 in (1953)
Month to date precipitation 0.27  
Year to date precipitation 0.27  
Sea Level Pressure  
Sea Level Pressure 30.30 in    
Wind  
Wind Speed 28 mph (WSW)    
Max Wind Speed 37 mph    
Max Gust Speed 51 mph    
Visibility 10 miles    
Events      
T = Trace of Precipitation, MM = Missing Value Source: NWS Daily Summary

Daily Weather History Graph

Daily Weather History Graph

Search for Another Location

Airport:

Trip Planner

Search our weather history database for the weather conditions in past years. The results will help you decide how hot, cold, wet, or windy it might be!

Date:

Astronomy

Jan. 17, 2013 Rise Set
Actual Time 7:57 AM MST 5:07 PM MST
Civil Twilight 7:24 AM MST 5:40 PM MST
Nautical Twilight 6:47 AM MST 6:16 PM MST
Astronomical Twilight 6:12 AM MST 6:52 PM MST
Moon 10:43 AM MST (1/17) No Moon Set
Length of Visible Light 10h 16m
Length of Day
9h 10m
Waxing Crescent, 38% of the Moon is Illuminated
Jan 17
Waxing Crescent
Jan 18
First Quarter
Jan 26
Full
Feb 3
Last Quarter
Feb 10
New

Hourly Weather History & Observations

Time (MST) Temp. Windchill Dew Point Humidity Pressure Visibility Wind Dir Wind Speed Gust Speed Precip Events Conditions
12:53 AM 36.0 °F 23.9 °F 15.1 °F 43% 30.38 in 10.0 mi WSW 25.3 mph 34.5 mph N/A   Clear
2:53 AM 36.0 °F 23.9 °F 14.0 °F 41% 30.39 in 10.0 mi SW 25.3 mph 35.7 mph N/A   Clear
3:53 AM 35.1 °F 23.0 °F 12.9 °F 40% 30.39 in 10.0 mi WSW 24.2 mph 35.7 mph N/A   Clear
5:53 AM 32.0 °F 18.4 °F 14.0 °F 48% 30.38 in 10.0 mi WSW 26.5 mph 39.1 mph N/A   Clear
6:53 AM 30.9 °F 15.7 °F 12.0 °F 46% 30.40 in 10.0 mi WSW 32.2 mph 40.3 mph N/A   Clear
7:53 AM 32.0 °F 18.6 °F 12.0 °F 44% 30.41 in 10.0 mi WSW 25.3 mph 36.8 mph N/A   Clear
8:53 AM 30.9 °F 16.4 °F 12.0 °F 46% 30.42 in 10.0 mi WSW 28.8 mph 38.0 mph N/A   Clear
9:53 AM 33.1 °F 19.6 °F 12.9 °F 43% 30.40 in 10.0 mi WSW 27.6 mph 35.7 mph N/A   Clear
11:53 AM 37.0 °F 23.3 °F 12.0 °F 36% 30.33 in 10.0 mi WSW 36.8 mph 49.5 mph N/A   Clear
12:53 PM 41.0 °F 28.8 °F 14.0 °F 33% 30.28 in 10.0 mi WSW 36.8 mph 42.6 mph N/A   Clear
1:53 PM 45.0 °F 35.4 °F 15.1 °F 30% 30.25 in 10.0 mi WSW 28.8 mph 35.7 mph N/A   Clear
2:53 PM 45.0 °F 35.4 °F 15.1 °F 30% 30.22 in 10.0 mi WSW 28.8 mph 39.1 mph N/A   Clear
3:53 PM 44.1 °F 35.0 °F 16.0 °F 32% 30.22 in 10.0 mi SW 24.2 mph 33.4 mph N/A   Clear
4:53 PM 39.9 °F 29.7 °F 16.0 °F 38% 30.26 in 10.0 mi WSW 23.0 mph 33.4 mph N/A   Clear
5:36 PM 41.0 °F 29.8 °F 15.8 °F 36% 30.20 in 10.0 mi SSW 29.9 mph 38.0 mph N/A   Clear
5:53 PM 41.0 °F 31.1 °F 15.1 °F 35% 30.25 in 10.0 mi SW 23.0 mph 41.4 mph N/A   Clear
6:53 PM 37.0 °F 26.4 °F 16.0 °F 42% 30.27 in 10.0 mi WSW 20.7 mph 33.4 mph N/A   Clear
7:53 PM 39.0 °F 27.2 °F 16.0 °F 39% 30.23 in 10.0 mi SW 29.9 mph 41.4 mph N/A   Clear
8:53 PM 41.0 °F 29.1 °F 14.0 °F 33% 30.25 in 10.0 mi West 34.5 mph 47.2 mph N/A   Clear
9:53 PM 39.0 °F 26.8 °F 15.1 °F 38% 30.22 in 10.0 mi SW 32.2 mph 43.7 mph N/A   Clear
10:53 PM 37.9 °F 25.7 °F 14.0 °F 38% 30.21 in 10.0 mi WSW 29.9 mph 46.0 mph N/A   Clear
11:53 PM 37.9 °F 24.6 °F 12.9 °F 36% 30.17 in 10.0 mi SW 36.8 mph 50.6 mph N/A   Clear